Location: Hemaruka
(51.7801°N, 111.0917°W)
Time: 10:45:01
(UTC+00:00)

NOAA 15 - Pass Details

Date: 09 December 2023
Orbit: 797 x 810 km, 98.6° (Epoch: 02 March)

Event Time Altitude Azimuth Distance (km) Brightness Sun altitude
Rises 00:56:54 0° 132° (SE) 3,319 7.5 -14.8°
Reaches altitude 10° 00:59:25 10° 123° (ESE) 2,390 6.7 -15.2°
Maximum altitude 01:04:04 33° 61° (ENE) 1,345 5.2 -15.9°
Drops below altitude 10° 01:08:44 10° 360° (N) 2,396 6.9 -16.6°
Sets 01:11:16 0° 351° (N) 3,329 7.7 -16.9°
